CW1259 Weather Reports


time (UTC)temp
C
wind
direction
speed
KPH
gust
KPH
rain 1hr
cm
rain 24hr
cm
rain mn
cm
humidity
%
barometer
mb
20260505201313 22 229 17.7 45.1 0.00 0.00 0.00 50 1003.8
20260505200332 23 176 22.5 43.5 0.00 0.00 0.00 49 1003.9
20260505200103 22 212 16.1 30.6 0.00 0.00 0.00 49 1003.5
20260505195331 23 195 17.7 37.0 0.00 0.00 0.00 50 1004.0
20260505194510 22 201 16.1 37.0 0.00 0.00 0.00 50 1003.6
20260505194345 23 177 17.7 37.0 0.00 0.00 0.00 50 1004.0
20260505193322 23 189 20.9 32.2 0.00 0.00 0.00 49 1004.4
20260505193003 23 233 17.7 35.4 0.00 0.00 0.00 49 1004.0
20260505192315 23 235 11.3 33.8 0.00 0.00 0.00 49 1004.4
20260505191531 23 150 17.7 33.8 0.00 0.00 0.00 49 1004.2
20260505191334 23 181 17.7 33.8 0.00 0.00 0.00 50 1004.5
20260505190325 23 201 22.5 35.4 0.00 0.00 0.00 49 1004.6
20260505190045 23 190 17.7 35.4 0.00 0.00 0.00 50 1004.5
20260505185318 23 186 9.7 40.2 0.00 0.00 0.00 49 1005.0
20260505184513 23 202 17.7 40.2 0.00 0.00 0.00 48 1004.7
20260505184321 23 205 14.5 32.2 0.00 0.00 0.00 48 1005.0
20260505183317 23 194 12.9 27.4 0.00 0.00 0.00 48 1005.2
20260505183038 23 246 12.9 27.4 0.00 0.00 0.00 49 1004.8
20260505182313 23 184 17.7 30.6 0.00 0.00 0.00 49 1005.0
20260505181503 23 143 17.7 30.6 0.00 0.00 0.00 49 1005.0
20260505181315 23 188 20.9 33.8 0.00 0.00 0.00 49 1005.3
20260505180335 25 109 16.1 27.4 0.00 0.00 0.00 47 1005.3
20260505180020 25 166 12.9 27.4 0.00 0.00 0.00 46 1005.1
20260505175328 25 263 16.1 33.8 0.00 0.00 0.00 44 1005.5
20260505174553 24 288 12.9 33.8 0.00 0.00 0.00 45 1005.1
20260505174316 25 232 12.9 40.2 0.00 0.00 0.00 46 1005.5
20260505173314 24 234 12.9 32.2 0.00 0.00 0.00 46 1005.6
20260505173059 24 251 12.9 32.2 0.00 0.00 0.00 45 1005.4
20260505172352 24 242 16.1 32.2 0.00 0.00 0.00 47 1005.8
20260505171506 23 210 16.1 33.8 0.00 0.00 0.00 45 1005.6
20260505171344 24 177 16.1 33.8 0.00 0.00 0.00 45 1005.8
20260505170319 23 266 11.3 32.2 0.00 0.00 0.00 48 1006.1
20260505170056 23 284 19.3 32.2 0.00 0.00 0.00 45 1005.8
20260505165353 23 279 9.7 37.0 0.00 0.00 0.00 49 1006.3
20260505164617 23 272 14.5 29.0 0.00 0.00 0.00 48 1006.3
20260505164321 23 263 8.0 33.8 0.00 0.00 0.00 48 1006.7
20260505163314 23 237 20.9 40.2 0.00 0.00 0.00 47 1007.0
20260505163010 22 239 9.7 24.1 0.00 0.00 0.00 50 1006.8
20260505162329 22 213 8.0 29.0 0.00 0.00 0.00 49 1007.0
20260505161535 22 226 12.9 30.6 0.00 0.00 0.00 48 1007.0
20260505161329 22 249 16.1 29.0 0.00 0.00 0.00 49 1007.2
20260505160339 22 224 16.1 29.0 0.00 0.00 0.00 49 1007.1
20260505153323 21 265 14.5 35.4 0.00 0.00 0.00 51 1007.7
20260505153002 21 293 17.7 32.2 0.00 0.00 0.00 51 1007.7
20260505152312 20 279 12.9 29.0 0.00 0.00 0.00 53 1007.9
20260505151523 20 261 11.3 25.7 0.00 0.00 0.00 54 1007.7
20260505151328 20 197 11.3 17.7 0.00 0.00 0.00 54 1007.9
20260505150319 19 230 14.5 22.5 0.00 0.00 0.00 55 1008.2
20260505140333 18 213 12.9 19.3 0.00 0.00 0.00 55 1007.7
20260505124601 14 196 4.8 19.3 0.00 0.00 0.00 63 1008.1
20260505124327 15 179 9.7 19.3 0.00 0.00 0.00 62 1008.1
20260505123344 14 176 8.0 16.1 0.00 0.00 0.00 63 1007.9
20260505123047 13 153 9.7 16.1 0.00 0.00 0.00 64 1008.0
20260505122314 14 169 11.3 14.5 0.00 0.00 0.00 64 1008.1
20260505121512 13 238 6.4 19.3 0.00 0.00 0.00 65 1008.2
20260505121313 13 179 6.4 19.3 0.00 0.00 0.00 66 1008.3
20260505120327 13 189 11.3 14.5 0.00 0.00 0.00 64 1008.4
20260505120028 13 202 6.4 12.9 0.00 0.00 0.00 65 1008.3
20260505115324 13 257 4.8 14.5 0.00 0.00 0.00 67 1008.4
20260505114556 12 227 6.4 14.5 0.00 0.00 0.00 67 1008.4
20260505114319 12 186 6.4 14.5 0.00 0.00 0.00 66 1008.4
20260505113337 12 224 6.4 12.9 0.00 0.00 0.00 68 1008.3
20260505113012 12 200 8.0 12.9 0.00 0.00 0.00 68 1008.3
20260505112352 11 234 8.0 17.7 0.00 0.00 0.00 70 1008.5